AirNav   Air Wisconsin Up To $57,000 Bonus
 
 1416 users online  

GA2 Peach State Aerodrome
Williamson, Georgia, USA

GOING TO WILLIAMSON?


FAA INFORMATION EFFECTIVE 31 DECEMBER 2020

Location

FAA Identifier: GA2
Lat/Long: 33-11-00.4310N 084-22-17.7250W
33-11.007183N 084-22.295417W
33.1834531,-84.3715903
(estimated)
Elevation: 926 ft. / 282 m (estimated)
Variation: 02W (1985)
From city: 1 mile W of WILLIAMSON, GA
Time zone: UTC -5 (UTC -4 during Daylight Saving Time)
Zip code: 30292

Airport Operations

Airport use: Open to the public
Activation date: 07/1967
Control tower: no
ARTCC: ATLANTA CENTER
FSS: MACON FLIGHT SERVICE STATION
NOTAMs facility: MCN (NOTAM-D service available)
Attendance: 0900-1800
Wind indicator: yes
Segmented circle: no

Airport Communications

CTAF/UNICOM: 122.725
WX AWOS-3 at 6A2 (6 nm NE): 119.750 (770-227-3934)
WX AWOS-3 at HMP (13 nm N): 124.825 (770-707-1719)
WX ASOS at FFC (15 nm NW): 118.525 (770-487-1610)
WX AWOS-3 at OPN (15 nm S): 133.975 (706-646-4123)

Nearby radio navigation aids

VOR radial/distance  VOR name  Freq  Var
ATLr178/26.9ATLANTA VORTAC116.9005W

 
NDB name  Hdg/Dist  Freq  Var  ID
PECAT146/9.131605WFFC ..-. ..-. -.-.
COWETA COUNTY107/17.723403WEQQ . --.- --.-
PINE MOUNTAIN054/32.527203WPIM .--. .. --
ALCOVY231/39.937003WVOF ...- --- ..-.

Airport Services

Fuel available: 100LL
Parking: hangars and tiedowns
Airframe service: MAJOR
Powerplant service: MINOR
Bottled oxygen: NONE
Bulk oxygen: NONE

Runway Information

Runway 13/31

Dimensions: 2400 x 100 ft. / 732 x 30 m
Surface: turf, in good condition
Runway edge markings: THR MKD BY TIRES.
RUNWAY 13  RUNWAY 31
Traffic pattern: rightleft
Markings: NSTDNSTD
Runway end identifier lights: nono
Obstructions: 56 ft. trees, 80 ft. left of centerline46 ft. trees, 322 ft. from runway, 125 ft. right of centerline, 7:1 slope to clear

Airport Ownership and Management from official FAA records

Ownership: Privately-owned
Owner: PEACH STATE AERODROME LLC
PO BOX 156
WILLIAMSON, GA 30292
Phone 405-406-6313
Manager: KEVEN SASSER
PO BOX 156
WILLIAMSON, GA 30292
Phone 405-406-6313

Airport Operational Statistics

Aircraft based on the field: 25
Single engine airplanes: 24
Multi engine airplanes: 1
    
Aircraft operations: avg 67/week *
79% local general aviation
21% transient general aviation
* for 12-month period ending 31 December 2019

Additional Remarks

FOR CTC FBO AT 770-227-9989.
FOR CD CTC ATLANTA APCH AT 678-364-6131.
FOR DAYTIME USE ONLY. NO RWY LGTS OR BCN.

Instrument Procedures

There are no published instrument procedures at GA2.

Some nearby airports with instrument procedures:

6A2 - Griffin-Spalding County Airport (6 nm NE)
KHMP - Atlanta Speedway Airport (13 nm N)
KFFC - Atlanta Regional Airport-Falcon Field (15 nm NW)
KOPN - Thomaston-Upson County Airport (15 nm S)
KCCO - Newnan Coweta County Airport (21 nm W)
 
Loc | Ops | Rwys | IFR | FBO | Links
Com | Nav | Svcs | Stats | Notes
Area around GA2 (Peach State Aerodrome)
 
Road maps at: MapQuest Bing Google
 
Aerial photo
WARNING: Photo may not be current or correct
Aerial photo of GA2 (Peach State Aerodrome)
Photo by J. Michael
Photo taken 12-Jul-2008

Do you have a better or more recent aerial photo of Peach State Aerodrome that you would like to share? If so, please send us your photo.

 
Sectional chart

 
Airport distance calculator
Flying to Peach State Aerodrome? Find the distance to fly.

From to GA2

Sunrise and sunset
Times for 25-Jan-2021
 Local
(UTC-5)
 Zulu
(UTC)
Morning civil twilight07:1212:12
Sunrise07:3812:38
Sunset18:0123:01
Evening civil twilight18:2823:28

Current date and time
Zulu (UTC)  25-Jan-2021 16:54:48
Local (UTC-5)  25-Jan-2021 11:54:48
 
METAR
K6A2 
6nm NE 
251635Z AUTO 18006KT 10SM BKN007 OVC012 17/16 A2995 RMK AO2
KHMP 
13nm N 
251635Z AUTO 19006KT 10SM OVC009 18/15 A2997 RMK AO2 T01760154
KFFC 
14nm NW 
251638Z AUTO 16006G17KT 10SM OVC011 18/16 A2993 RMK AO2 T01780156
KOPN 
15nm S 
251635Z AUTO 20005KT 10SM OVC004 17/15 A2997 RMK AO2
TAF
KATL 
27nm N 
251559Z 2516/2618 17007KT 6SM BR BKN006 FM251900 19008KT P6SM BKN010 OVC025 FM252100 19008KT P6SM BKN025 FM260300 20010KT P6SM VCSH OVC010 FM260600 21011KT 6SM SHRA BR OVC005 FM261400 25009KT P6SM VCSH SCT005 BKN015
NOTAMs
Click for the latest NOTAMs
NOTAMs are issued by the DoD/FAA and will open in a separate window not controlled by AirNav.

 

 
 

FBO, Fuel Providers, and Aircraft Ground Support

  
 Business Name 
 
 Contact 
 
 Services / Description 
 
Fuel Prices
 
Comments
  
 Peach State Aerodrome LLC
UNICOM 122.725
678-590-7677
[web site]
[email]
GA2 is a 2,800ft grass strip just south of ATL. We are home to the Barnstormers Grill and Event Center, a well known family restaurant, as well as the Candler Field Museum Youth Aviation Program. We offer competitively priced self-serve fuel, an airpark community, and hangars for rent! See you soon!

More info about Peach State Aerodrome LLC
independent
100LL
SS $3.25 
 Updated 14-Jan-2021
 
   1 read write
SS=Self service
Update Fuel Prices
 

Would you like to see your business listed on this page?

 If your business provides an interesting product or service to pilots, flight crews, aircraft, or users of the Peach State Aerodrome, you should consider listing it here.  To start the listing process, click on the button below
 
Add a business
 

Other Pages about Peach State Aerodrome

Update a link
 
Copyright © AirNav, LLC. All rights reserved. Privacy Policy  Contact